• Processing (Info)

  • MPEC 2013-U76 : 2013 UQ8

    The following Minor Planet Electronic Circular may be linked-to from your own Web pages, but must not otherwise be redistributed electronically.

    A form allowing access to any MPEC is at the bottom of this page.


    Read MPEC 2013-U75 Read MPEC 2013-U77


    M.P.E.C. 2013-U76                                Issued 2013 Oct. 29, 17:24 UT
    
         The Minor Planet Electronic Circulars contain information on unusual
             minor planets and routine data on comets.  They are published
       on behalf of Commission 20 of the International Astronomical Union by the
              Minor Planet Center, Smithsonian Astrophysical Observatory,
                              Cambridge, MA 02138, U.S.A.
    
                 Prepared using the Tamkin Foundation Computer Network
    
                                  MPC@CFA.HARVARD.EDU
                URL https://www.minorplanetcenter.net/    ISSN 1523-6714
    
                                       2013 UQ8
    
    Observations:
         K13U08Q* C2013 10 28.17643 00 56 16.78 +15 21 36.8          20.1 VqEU076703
         K13U08Q  C2013 10 28.18149 00 56 22.02 +15 21 54.8          20.2 VqEU076703
         K13U08Q  C2013 10 28.18653 00 56 27.45 +15 22 12.8          19.8 VqEU076703
         K13U08Q  C2013 10 28.19156 00 56 32.46 +15 22 32.2          19.5 VqEU076703
         K13U08Q  C2013 10 28.22181 00 57 03.93 +15 24 22.1          20.1 VqEU076703
         K13U08Q  C2013 10 28.22833 00 57 10.67 +15 24 44.7          19.9 VqEU076703
         K13U08Q  C2013 10 28.23488 00 57 17.45 +15 25 08.6          19.9 VqEU076703
         K13U08Q IC2013 10 28.23496 00 57 16.21 +15 25 13.8                oEU076711
         K13U08Q  C2013 10 28.23635 00 57 17.66 +15 25 18.8                oEU076711
         K13U08Q  C2013 10 28.23822 00 57 19.54 +15 25 25.3                oEU076711
         K13U08Q  C2013 10 28.24140 00 57 24.16 +15 25 32.1          20.2 VqEU076703
         K13U08Q  C2013 10 28.24163 00 57 23.04 +15 25 37.2                oEU076711
         K13U08Q KC2013 10 28.28662200 58 07.19 +15 27 39.3          19.7 VrEU076H21
         K13U08Q KC2013 10 28.29197300 58 12.74 +15 27 56.9          19.7 VrEU076H21
         K13U08Q KC2013 10 28.29764500 58 18.64 +15 28 15.7          19.5 VrEU076H21
         K13U08Q KC2013 10 28.35240700 59 16.45 +15 31 46.9          19.9 VqEU076V37
         K13U08Q KC2013 10 28.35545400 59 19.54 +15 31 57.1          20.0 VqEU076V37
         K13U08Q KC2013 10 28.35851300 59 22.70 +15 32 07.0          19.9 VqEU076V37
         K13U08Q KC2013 10 28.36157900 59 25.83 +15 32 16.8          20.0 VqEU076V37
         K13U08Q KC2013 10 28.36463600 59 28.97 +15 32 26.5          20.2 VqEU076V37
         K13U08Q KC2013 10 28.36770500 59 32.14 +15 32 35.9          20.0 VqEU076V37
         K13U08Q KC2013 10 28.36982600 59 34.31 +15 32 42.9          20.0 VqEU076V37
         K13U08Q KC2013 10 28.97457 01 09 47.68 +16 02 57.6                qEU076J95
         K13U08Q KC2013 10 28.97839 01 09 51.13 +16 03 07.6                qEU076J95
         K13U08Q KC2013 10 28.98232 01 09 54.67 +16 03 18.0          20.0 RqEU076J95
         K13U08Q KC2013 10 29.16467701 12 45.75 +16 12 02.7          19.9 VrEU076H21
         K13U08Q KC2013 10 29.17174301 12 51.73 +16 12 21.4          19.8 VrEU076H21
         K13U08Q KC2013 10 29.17840001 12 57.35 +16 12 39.3          19.9 VrEU076H21
    
    Observer details:
    703 Catalina Sky Survey.  Observer R. E. Hill.  Measurers A. Boattini,
        E. J. Christensen, A. R. Gibbs, A. D. Grauer, R. E. Hill, J. A. Johnson,
        R. A. Kowalski, S. M. Larson, F. C. Shelly.  0.68-m Schmidt + CCD.
    711 McDonald Observatory.  Observer J. G. Ries.  2.1-m reflector + CCD + focal
        reducer.
    H21 Astronomical Research Observatory, Westfield.  Observer R. Holmes.
        Measurers S. Foglia, L. Buzzi, H. Devore, A. Kostin, T. Linder,
        T. Lister. T. Vorobjov.  0.61-m f/4.0 astrograph + CCD.
    J95 Great Shefford.  Observer P. Birtwhistle.  0.40-m f/6.0 Schmidt-Cassegrain
        + CCD.
    V37 McDonald Observatory-LCOGT ELP.  Observers E. J. Christensen, S. M. Larson,
        T. Lister.  Measurer T. Lister.  1.0-m f/8 Ritchey-Chretien + CCD.
    
    Orbital elements:
    2013 UQ8                                                 Earth MOID = 0.0053 AU
    Epoch 2013 Nov. 4.0 TT = JDT 2456600.5                  MPC
    M  17.99182              (2000.0)            P               Q
    n   0.39160892     Peri.    6.38809     +0.96373522     +0.26684315
    a   1.8502667      Node   338.13468     -0.24519787     +0.88097010
    e   0.5049699      Incl.    0.46569     -0.10532063     +0.39075110
    P   2.52           H   25.6           G   0.15           U   7
    Residuals in seconds of arc
    131028 703  1.0+  0.4+    131028 703  0.1-  1.0+    131028 V37  0.5+  0.3-
    131028 703  0.0   0.3-    131028 711  0.9-  0.0     131028 V37  0.4+  0.0
    131028 703  2.3+  0.8-    131028 H21  0.0   0.3-    131028 J95  0.5-  0.5+
    131028 703  1.2-  0.1+    131028 H21  0.0   0.4-    131028 J95  0.0   0.0
    131028 703  0.5-  0.6+    131028 H21  0.2+  0.4-    131028 J95  0.4+  0.4-
    131028 703  0.4-  0.1-    131028 V37  0.1+  0.5-    131029 H21  0.1+  0.2-
    131028 703  0.0   0.5+    131028 V37  0.3-  0.1-    131029 H21  0.0   0.3-
    131028 711  0.4-  0.1-    131028 V37  0.1+  0.0     131029 H21  0.2-  0.0
    131028 711  0.2-  0.1+    131028 V37  0.0   0.1+
    131028 711  0.8-  0.0     131028 V37  0.1+  0.1+
    
    Ephemeris:
    2013 UQ8                 a,e,i = 1.85, 0.50, 0                   q = 0.9159
    Date    TT    R. A. (2000) Decl.     Delta      r     Elong.  Phase     V
    2013 09 29    15 56 32.2 -19 25 49   0.1502  0.9245    55.2   117.1    25.9
    ...
    2013 10 14    17 16 38.3 -18 10 02   0.05878 0.9687    59.2   117.8    24.1
    ...
    2013 10 22    21 12 39.7 -02 14 21   0.02695 1.0051   110.7    67.8    20.2
    ...
    2013 10 28    00 52 51.2 +15 11 41   0.04569 1.0370   161.4    17.8    19.9
    2013 10 29    01 10 12.0 +16 05 45   0.05106 1.0427   164.6    14.7    20.1
    2013 10 30    01 24 19.4 +16 45 20   0.05670 1.0484   167.0    12.3    20.2
    ...
    2013 11 05    02 12 01.7 +18 26 48   0.09369 1.0846   172.6     6.7    21.1
    ...
    2013 11 13    02 37 30.6 +18 56 58   0.1482  1.1365   171.6     7.3    22.3
    ...
    2013 11 28    02 57 48.1 +19 09 13   0.2654  1.2414   161.7    14.4    24.0
    
    A. U. Tomatic                (C) Copyright 2013 MPC           M.P.E.C. 2013-U76
    

    Read MPEC 2013-U75 Read MPEC 2013-U77


    MPEC number:

    Enter an MPEC number in one of the following forms:

    • 1997-B01 (the full form)
    • J97B01 (the packed version of the full form)
    • B01 (the abbreviated form)